Regional Weather Roundup
Issued by NWS Austin/San Antonio, TX

Current Version | Previous Version | Text Only | Print | Product List | Glossary On
Versions: 1 2 3 4 5 6 7 8 9 10 11 12 13 14 15 16 17 18 19 20 21 22 23 24 25 26 27 28 29 30 31 32 33 34 35 36 37 38 39 40 41 42 43 44 45 46 47 48 49 50
000
ASUS44 KEWX 051702
RWREWX
SOUTH TEXAS REGIONAL WEATHER ROUNDUP
NATIONAL WEATHER SERVICE AUSTIN/SAN ANTONIO TX
1200 PM CDT SUN JUL 05 2020

NOTE: "FAIR" INDICATED FEW OR NO CLOUDS BELOW 12,000 FEET WITH NO
SIGNIFICANT WEATHER AND/OR OBSTRUCTIONS TO VISIBILITY.

* - THESE STATIONS ARE NOT NWS OR FAA STATIONS...AND ARE NOT SUBJECT
    TO NWS AND FAA QUALITY CONTROL.

TXZ171-172-183>190-051800-
TEXAS HILL COUNTRY AND EDWARDS PLATEAU

CITY           SKY/WX    TMP DP  RH WIND       PRES   REMARKS
JUNCTION       SUNNY     96  65  35 VRB3      29.93F HX  98
*LLANO         SUNNY     93  64  38 NW6       29.94S HX  95
BURNET         SUNNY     92  63  38 CALM      29.95S HX  93
*HORSESHOE BAY SUNNY     93  61  33 NE3       29.92R HX  93
*LAGO VISTA    MOSUNNY   92  61  34 SW3       29.94R HX  92
*KERRVILLE     SUNNY     92  62  36 SE9       29.94S HX  92
*FREDERICKSBRG SUNNY     90  60  36 S5        29.94S
*ROCKSPRINGS   SUNNY     93  61  33 S9G16     30.01F HX  93
*BOERNE        SUNNY     88  63  42 SW8       29.95S
*CASTROVILLE   SUNNY     92  68  44 MISG      29.92S HX  96
HONDO          SUNNY     91  70  49 VRB6      29.91S HX  96
*UVALDE          N/A     90  70  51 SE7       29.92F HX  95
DEL RIO        SUNNY     96  68  39 SE10G18   29.87S HX 101
*LAUGHLIN AFB  NOT AVBL
*SPOFFORD      NOT AVBL
*EAGLE PASS    NOT AVBL
CARRIZO SPRGS  SUNNY     95  70  43 S8        29.87S HX 101
$$

TXZ173-191>194-202-209-217>225-228-051800-
CENTRAL AND SOUTH CENTRAL TEXAS

CITY           SKY/WX    TMP DP  RH WIND       PRES   REMARKS
GEORGETOWN     SUNNY     93  66  40 CALM      29.92F HX  96
*TAYLOR        MOSUNNY   90  70  51 SW7       29.92R HX  95
AUSTIN/BERGSTM MOSUNNY   91  72  53 S14G21    29.89S HX  98
AUSTIN/MABRY   SUNNY     92  71  50 VRB3      29.92R HX  98
*PFLUGERVILLE  SUNNY     88  68  51 SW6       29.91R HX  91
SAN MARCOS     SUNNY     92  70  48 SW10      29.91S HX  97
NEW BRAUNFELS  SUNNY     94  67  41 VRB6      29.89S HX  97
*RANDOLPH AFB  MOSUNNY   90  69  48 SW6       29.91R HX  94
*SEGUIN        MOSUNNY   91  67  46 S14       29.94S HX  94
SAN ANTONIO    PTSUNNY   90  70  51 S6        29.92R HX  95
STINSON FIELD  SUNNY     90  70  51 SW10      29.89R HX  95
*KELLY FIELD   SUNNY     91  71  51 S7        29.89S HX  97
*PLEASANTON    SUNNY     90  74  59 S8        29.90S HX 100
*KENEDY        SUNNY     89  73  58 SE8       29.91S HX  97
*LA GRANGE     MOSUNNY   92  71  50 S12G18    29.88F HX  99
*GIDDINGS      MOSUNNY   91  73  55 S5        29.92R HX  98
*GONZALES      CLOUDY    90  73  56 S9        29.90S HX  98
$$

TXZ163>164-176>182-195>201-210>213-226-227-235-051800-
SOUTHEAST TEXAS

CITY           SKY/WX    TMP DP  RH WIND       PRES   REMARKS
COLLEGE STN    PTSUNNY   87  73  62 NW7       29.93R HX  94
*BRYAN         CLOUDY    87  75  68 N8        29.96R HX  96
*CALDWELL      MOSUNNY   88  75  66 W6        29.92R HX  97
*CROCKETT      NOT AVBL
*BRENHAM       MOSUNNY   89  74  62 SW7       29.91S HX  98
HUNTSVILLE     PTSUNNY   85  73  67 NW3       29.94R HX  91
CONROE         MOSUNNY   85  73  67 CALM      29.92R HX  91
HOUSTON BUSH   MOSUNNY   89  74  60 W8        29.90S HX  98
HOUSTON HOBBY  PTSUNNY   89  74  60 W12       29.90S HX  98
*HOUSTON SW AP PTSUNNY   86  77  74 W7        29.91S HX  96
PEARLAND       PTSUNNY   88  73  61 W6        29.91F HX  95
HOUSTON HOOKS  PTSUNNY   87  73  62 W8        29.91R HX  94
ELLINGTON FLD  PTSUNNY   90  73  58 SW12      29.89S HX  98
SUGAR LAND     PTSUNNY   89  75  63 SW12      29.90S HX  99
*HOUSTON EXEC  PTSUNNY   88  77  70 SW8G15    29.92S HX 100
*CLEVELAND MUN PTSUNNY   85  73  67 CALM      29.93S HX  92
*WHARTON       MOSUNNY   88  70  55 SW14      29.91F HX  93
*COLUMBUS      FAIR      87  75  66 SW7       29.92S HX  96
*EAGLE LAKE    MOSUNNY   87  77  72 SW10      29.91  HX 100
$$

TXZ214>216-236>238-051800-
THE UPPER TEXAS COAST

CITY           SKY/WX    TMP DP  RH WIND       PRES   REMARKS
*ORANGE        MOSUNNY   88  74  64 N5        29.93F HX  97
PORT ARTHUR    MOSUNNY   88  76  67 SW5       29.90F HX  99
GALVESTON      MOSUNNY   90  76  63 S17       29.91S HX 101
ANGLETON       MOSUNNY   88  76  67 W9G18     29.90F HX  99
*BAY CITY      PTSUNNY   90  76  64 SW16      29.91F HX 102
PALACIOS       MOSUNNY   88  76  67 S13       29.91S HX  99
$$

TXZ229>234-239>247-051800-
TEXAS COASTAL BEND AND RIO GRANDE PLAINS

CITY           SKY/WX    TMP DP  RH WIND       PRES   REMARKS
VICTORIA       MOSUNNY   91  73  55 S13       29.90F HX  99
*BEEVILLE      MOSUNNY   89  79  71 S12       29.90S HX 105
ROCKPORT       MOSUNNY   89  75  63 S13G21    29.90F HX  99
*PORT ARANSAS  SUNNY     86  77  75 S12G17    29.92F HX  97
*PORT LAVACA   MOSUNNY   91  79  66 SW12G23   29.91F HX 108
*INGLESIDE     SUNNY     90  78  66 S12G17    29.90F HX 104
CORPUS CHRISTI MOSUNNY   89  77  67 S13       29.89F HX 101
CORPUS NAS     SUNNY     87  79  76 S15       29.90S HX 101
*ROBSTOWN      SUNNY     90  76  61 S12G17    29.90F HX 101
ALICE          SUNNY     93  75  55 S13       29.88S HX 104
KINGSVILLE NAS NOT AVBL
COTULLA        SUNNY     93  72  50 VRB7      29.88S HX 101
LAREDO         SUNNY     94  74  52 SE9       29.88R HX 104
$$

TXZ248>255-051800-
DEEP SOUTH TEXAS

CITY           SKY/WX    TMP DP  RH WIND       PRES   REMARKS
BROWNSVILLE    SUNNY     92  72  51 S20       29.90S HX  99
PORT ISABEL    MOSUNNY   92  73  53 S14       29.90R HX 100
HARLINGEN      SUNNY     93  74  53 S20       29.89S HX 103
*HEBBRONVILLE  SUNNY     92  68  45 S15       29.91S HX  95
MCALLEN        SUNNY     92  70  48 S16G22    29.89S HX  97
*WESLACO       SUNNY     92  70  47 S15G22    29.88F HX  98
FALFURRIAS     NOT AVBL
EDINBURG       SUNNY     91  68  46 S16       29.89F HX  95
*ZAPATA        SUNNY     94  73  49 S7        29.89S HX 102
$$

TXZ213>215-236>238-242>244-246-247-251-254-255-051800-
CMAN STATIONS

STATION/POSITION TIME  TEMP    WIND        PRES    WAVE
                       AIR SEA DIR/SP/G            HT/PER
                 (UTC) (F)     (DEG/KT/KT) (MB)    (FT/S)
SABINE PASS      1630   88 87  230/  8/ 13 1014.5
NORTH JETTY/GLS  1624   87 83  210/ 15/ 18 1011.4
EAGLE POINT      1624   86 87  230/  9/ 12 1012.1
MORGANS POINT    1630   86 87  230/  7/ 10 1012.5
PORT O`CONNOR    1624   84 85  210/ 14/ 18 1012.6
PORT ARANSAS     1600   81 83  180/ 13/ 14 1012.9
MALAQUITE BEACH  1624   81     140/ 12/ 13   N/A
BAFFIN BAY       1624   84 88  140/ 11/ 13 1012.8
PORT ISABEL      1624   91 81  160/ 13/ 22 1014.5
$$




USA.gov is the U.S. government's official web portal to all federal, state and local government web resources and services.